Palmdale, CA

3:11 PM PST on February 24, 2017 (GMT -0800)
Palmdale Af Plant 42

Weather History for KPMD - April, 2011

Change the Weather History Date:

Tuesday, April 19, 2011

  Actual Average Record
Temperature  
Mean Temperature 65 °F 59 °F  
Max Temperature 76 °F 73 °F 92 °F (1954)
Min Temperature 54 °F 44 °F 27 °F (1955)
Degree Days  
Heating Degree Days 0 7  
Month to date heating degree days 148 169  
Since 1 July heating degree days 2815 2790  
Cooling Degree Days 0 1  
Month to date cooling degree days 5 4  
Year to date cooling degree days 6 6  
Growing Degree Days 14 (Base 50)    
Moisture  
Dew Point 47 °F    
Average Humidity 57    
Maximum Humidity 83    
Minimum Humidity 31    
Precipitation  
Precipitation 0.00 in 0.02 in 0.15 in (1967)
Month to date precipitation T 0.32  
Year to date precipitation 2.33 4.83  
Since 1 July precipitation 7.71  
Snow  
Snow 0.00 in - 0.00 in (1973)
Month to date snowfall 0.0  
Since 1 July snowfall 0.0  
Snow Depth 0.00 in    
Sea Level Pressure  
Sea Level Pressure 29.90 in    
Wind  
Wind Speed 14 mph (WSW)    
Max Wind Speed 24 mph    
Max Gust Speed 29 mph    
Visibility 10 miles    
Events      
T = Trace of Precipitation, MM = Missing Value Source: NWS Daily Summary

Daily Weather History Graph

Daily Weather History Graph

Search for Another Location

Airport or City:

Trip Planner

Search our weather history database for the weather conditions in past years. The results will help you decide how hot, cold, wet, or windy it might be!

Date:

Astronomy

Apr. 19, 2011 Rise Set
Actual Time 6:15 AM PDT 7:27 PM PDT
Civil Twilight 5:49 AM PDT 7:53 PM PDT
Nautical Twilight 5:18 AM PDT 8:24 PM PDT
Astronomical Twilight 4:46 AM PDT 8:57 PM PDT
Moon 9:50 PM PDT (4/19) 7:07 AM PDT (4/19)
Length of Visible Light 14h 03m
Length of Day
13h 11m
Waning Gibbous, 96% of the Moon is Illuminated
Apr 19
Waning Gibbous
Apr 24
Last Quarter
May 2
New
May 10
First Quarter
May 17
Full

Hourly Weather History & Observations

Time (PDT) Temp. Dew Point Humidity Pressure Visibility Wind Dir Wind Speed Gust Speed Precip Events Conditions
12:53 AM 59.0 °F 46.4 °F 63% 29.96 in 10.0 mi West 18.4 mph 28.8 mph N/A   Clear
1:53 AM 57.9 °F 46.9 °F 67% 29.89 in 10.0 mi West 15.0 mph - N/A   Clear
2:53 AM 57.0 °F 46.0 °F 67% 29.89 in 10.0 mi WSW 5.8 mph - N/A   Clear
3:53 AM 55.0 °F 46.0 °F 72% 29.90 in 10.0 mi West 9.2 mph - N/A   Clear
4:53 AM 54.0 °F 46.0 °F 75% 29.89 in 10.0 mi West 8.1 mph - N/A   Clear
5:53 AM 55.0 °F 46.0 °F 72% 29.90 in 10.0 mi West 9.2 mph - N/A   Clear
6:53 AM 55.9 °F 46.0 °F 69% 29.92 in 10.0 mi WSW 12.7 mph - N/A   Clear
7:53 AM 60.1 °F 45.0 °F 57% 29.94 in 10.0 mi West 16.1 mph - N/A   Clear
8:53 AM 63.0 °F 45.0 °F 52% 29.94 in 10.0 mi West 13.8 mph - N/A   Clear
9:53 AM 66.0 °F 44.1 °F 45% 29.94 in 10.0 mi WNW 17.3 mph 25.3 mph N/A   Clear
10:53 AM 66.9 °F 43.0 °F 42% 29.93 in 10.0 mi WNW 16.1 mph 21.9 mph N/A   Clear
11:53 AM 70.0 °F 39.9 °F 33% 29.91 in 10.0 mi West 17.3 mph 24.2 mph N/A   Clear
12:53 PM 75.0 °F 42.1 °F 31% 29.87 in 10.0 mi West 15.0 mph - N/A   Clear
1:00 PM 73.4 °F 42.8 °F 33% 29.93 in 10.0 mi SW 12.7 mph 18.4 mph N/A   Clear
1:53 PM 73.9 °F 45.0 °F 35% 29.87 in 10.0 mi WSW 17.3 mph 24.2 mph N/A   Clear
2:53 PM 73.9 °F 48.0 °F 40% 29.86 in 10.0 mi WSW 16.1 mph 24.2 mph N/A   Clear
3:53 PM 73.0 °F 48.9 °F 42% 29.85 in 10.0 mi SW 17.3 mph - N/A   Clear
4:53 PM 71.1 °F 48.9 °F 45% 29.86 in 10.0 mi WSW 18.4 mph - N/A   Clear
5:53 PM 68.0 °F 48.9 °F 50% 29.86 in 10.0 mi WSW 19.6 mph 24.2 mph N/A   Clear
6:53 PM 63.0 °F 50.0 °F 63% 29.87 in 10.0 mi SW 13.8 mph - N/A   Clear
7:53 PM 60.1 °F 50.0 °F 69% 29.88 in 10.0 mi SW 16.1 mph - N/A   Clear
8:53 PM 57.9 °F 50.0 °F 75% 29.89 in 10.0 mi SW 11.5 mph - N/A   Clear
9:53 PM 57.0 °F 50.0 °F 77% 29.91 in 10.0 mi SW 17.3 mph 23.0 mph N/A   Clear
10:53 PM 55.0 °F 50.0 °F 83% 29.92 in 10.0 mi SSW 6.9 mph - N/A   Clear
11:53 PM 55.0 °F 48.9 °F 80% 29.92 in 9.0 mi SSW 8.1 mph - N/A   Clear